Precipitable_Water
0.28 0.18 0.15 0.14 0.17 0.24 0.30 0.34 0.32 0.32 0.33 0.35 0.36 0.35 0.36 0.37 0.37 0.39 0.38 0.39 0.42 0.51 0.52 0.60 0.63 0.68 0.75 0.83 0.90 0.99 1.08 1.08 1.06 1.03 1.04 1.06 1.05 1.05 1.06 1.07 1.01 0.91 0.81 0.84 0.90 0.97 1.02 1.06 1.13 1.19 1.24 1.28 1.33 1.35 1.32 1.27 1.26 1.27 1.26 1.26 1.22 1.29 1.36 1.34 1.30 1.30 1.29 1.24 1.27 1.33 1.31 1.27 1.35 1.38 1.42 1.42 1.44 1.48 1.52 1.56 1.60 1.62 1.63 1.66 1.68 1.71
0.24 0.17 0.14 0.17 0.20 0.24 0.27 0.32 0.33 0.32 0.32 0.32 0.33 0.33 0.34 0.36 0.33 0.37 0.37 0.39 0.41 0.43 0.53 0.63 0.66 0.67 0.73 0.81 0.89 1.00 1.02 0.98 0.99 1.01 1.03 1.05 1.06 1.02 1.01 1.03 1.00 0.92 0.92 0.93 0.91 0.95 1.01 1.05 1.09 1.15 1.20 1.24 1.22 1.29 1.33 1.29 1.26 1.26 1.29 1.25 1.26 1.32 1.33 1.32 1.30 1.29 1.29 1.27 1.23 1.21 1.22 1.27 1.32 1.33 1.32 1.30 1.37 1.42 1.51 1.55 1.56 1.59 1.62 1.65 1.68 1.73
0.17 0.14 0.15 0.18 0.21 0.24 0.27 0.30 0.31 0.30 0.28 0.29 0.29 0.30 0.32 0.34 0.35 0.37 0.37 0.39 0.38 0.41 0.43 0.57 0.60 0.66 0.74 0.81 0.91 0.94 0.94 0.96 1.01 1.00 0.99 1.02 1.04 1.01 0.99 1.01 0.99 0.96 0.90 0.89 0.88 0.88 0.92 0.98 1.04 1.10 1.15 1.18 1.18 1.20 1.24 1.28 1.32 1.33 1.30 1.27 1.28 1.29 1.28 1.29 1.32 1.30 1.24 1.29 1.31 1.28 1.29 1.30 1.30 1.40 1.43 1.42 1.45 1.48 1.48 1.53 1.56 1.58 1.60 1.65 1.69 1.74
0.14 0.14 0.17 0.20 0.21 0.21 0.22 0.26 0.28 0.28 0.28 0.27 0.26 0.27 0.26 0.34 0.32 0.29 0.36 0.38 0.38 0.36 0.36 0.47 0.50 0.59 0.77 0.89 0.91 0.95 0.96 0.98 1.03 1.05 1.04 1.05 1.01 1.02 1.01 1.01 1.02 0.97 0.92 0.82 0.84 0.87 0.89 0.92 0.97 1.04 1.08 1.12 1.17 1.18 1.21 1.28 1.29 1.31 1.29 1.28 1.27 1.26 1.27 1.28 1.30 1.29 1.32 1.34 1.36 1.38 1.38 1.39 1.36 1.33 1.42 1.45 1.49 1.47 1.46 1.45 1.54 1.57 1.59 1.64 1.67 1.72
0.13 0.17 0.19 0.20 0.20 0.19 0.18 0.20 0.23 0.24 0.23 0.25 0.25 0.25 0.26 0.32 0.32 0.32 0.34 0.37 0.37 0.37 0.38 0.44 0.49 0.58 0.70 0.78 0.87 0.96 1.02 1.01 1.04 1.09 1.10 1.10 1.07 1.05 1.07 1.05 1.03 0.98 0.95 0.88 0.82 0.85 0.87 0.88 0.91 0.95 1.00 1.09 1.11 1.12 1.12 1.16 1.19 1.21 1.20 1.23 1.24 1.23 1.23 1.25 1.28 1.30 1.34 1.37 1.36 1.38 1.40 1.41 1.38 1.40 1.38 1.35 1.33 1.37 1.38 1.40 1.43 1.47 1.56 1.60 1.65 1.71
0.17 0.20 0.22 0.18 0.18 0.19 0.18 0.17 0.19 0.21 0.19 0.21 0.25 0.24 0.26 0.33 0.35 0.34 0.36 0.35 0.32 0.30 0.36 0.39 0.35 0.45 0.62 0.72 0.75 0.85 0.96 0.96 1.02 1.01 1.00 1.03 1.06 1.10 1.06 1.04 1.05 1.04 1.01 0.95 0.86 0.81 0.84 0.85 0.88 0.93 0.98 1.02 1.04 1.06 1.09 1.12 1.13 1.15 1.18 1.24 1.28 1.29 1.29 1.27 1.28 1.31 1.34 1.30 1.26 1.24 1.19 1.13 1.13 1.11 1.13 1.07 1.09 1.22 1.27 1.27 1.41 1.50 1.53 1.55 1.60 1.68
0.16 0.21 0.22 0.20 0.18 0.17 0.18 0.17 0.19 0.21 0.17 0.17 0.17 0.25 0.26 0.30 0.35 0.34 0.34 0.33 0.28 0.26 0.34 0.43 0.33 0.34 0.59 0.64 0.75 0.81 0.84 0.85 0.95 0.96 0.96 1.00 1.03 1.04 1.03 1.05 1.05 1.02 1.02 1.01 0.96 0.93 0.89 0.87 0.85 0.87 0.91 0.95 0.97 1.00 1.07 1.12 1.14 1.16 1.18 1.22 1.25 1.26 1.28 1.31 1.29 1.32 1.32 1.28 1.27 1.21 1.15 1.11 1.07 1.02 1.08 1.17 1.26 1.28 1.35 1.42 1.42 1.45 1.52 1.54 1.56 1.66
0.20 0.20 0.21 0.21 0.21 0.19 0.17 0.15 0.17 0.20 0.18 0.14 0.18 0.23 0.25 0.27 0.31 0.33 0.32 0.31 0.29 0.34 0.36 0.38 0.43 0.37 0.39 0.56 0.72 0.79 0.78 0.81 0.85 0.89 0.93 0.96 0.98 0.99 1.01 1.04 1.05 1.05 1.04 1.01 1.00 0.97 0.95 0.95 0.90 0.84 0.85 0.89 0.91 0.96 1.04 1.08 1.12 1.15 1.17 1.19 1.21 1.26 1.29 1.31 1.31 1.29 1.29 1.23 1.22 1.19 1.17 1.16 1.11 1.06 1.05 1.16 1.21 1.31 1.38 1.39 1.42 1.48 1.51 1.56 1.61 1.64
0.20 0.18 0.20 0.20 0.20 0.20 0.17 0.16 0.17 0.19 0.17 0.14 0.18 0.20 0.21 0.23 0.28 0.32 0.32 0.31 0.31 0.31 0.28 0.31 0.34 0.34 0.36 0.52 0.66 0.73 0.71 0.77 0.79 0.82 0.86 0.91 0.93 0.96 0.98 1.00 1.03 1.05 1.05 1.03 0.99 0.98 0.96 0.94 0.97 0.96 0.92 0.92 0.92 0.96 0.99 1.01 1.05 1.11 1.15 1.17 1.19 1.20 1.25 1.30 1.33 1.29 1.27 1.25 1.21 1.19 1.17 1.14 1.15 1.14 1.14 1.23 1.29 1.27 1.33 1.33 1.41 1.45 1.51 1.56 1.62 1.66
0.22 0.22 0.22 0.22 0.21 0.18 0.20 0.22 0.21 0.19 0.15 0.16 0.18 0.18 0.19 0.22 0.25 0.29 0.30 0.30 0.30 0.29 0.24 0.28 0.31 0.26 0.28 0.44 0.57 0.68 0.67 0.68 0.73 0.77 0.81 0.85 0.87 0.91 0.94 0.97 1.01 1.05 1.06 1.06 1.02 1.01 1.00 1.00 0.98 1.00 1.00 0.99 0.98 1.01 1.01 1.00 1.04 1.08 1.12 1.14 1.16 1.16 1.21 1.26 1.30 1.31 1.27 1.25 1.25 1.20 1.17 1.11 1.11 1.15 1.19 1.22 1.21 1.21 1.25 1.23 1.30 1.39 1.46 1.53 1.58 1.62
0.25 0.31 0.32 0.28 0.24 0.23 0.23 0.24 0.24 0.22 0.19 0.17 0.16 0.14 0.14 0.16 0.19 0.26 0.29 0.30 0.28 0.24 0.23 0.27 0.30 0.28 0.23 0.32 0.42 0.53 0.60 0.67 0.71 0.76 0.80 0.85 0.88 0.90 0.93 0.93 0.96 0.99 1.04 1.06 1.06 1.04 1.02 1.04 1.03 1.04 1.02 1.00 1.01 1.04 1.05 1.05 1.04 1.06 1.10 1.12 1.12 1.14 1.20 1.25 1.26 1.29 1.26 1.28 1.26 1.19 1.16 1.13 1.10 1.12 1.14 1.13 1.14 1.18 1.19 1.15 1.20 1.28 1.37 1.50 1.51 1.56
0.24 0.26 0.27 0.30 0.32 0.31 0.28 0.24 0.25 0.24 0.22 0.19 0.16 0.14 0.13 0.12 0.15 0.19 0.24 0.27 0.22 0.20 0.23 0.27 0.28 0.29 0.20 0.22 0.36 0.45 0.61 0.71 0.71 0.70 0.74 0.78 0.82 0.83 0.87 0.91 0.93 0.96 0.99 1.04 1.07 1.07 1.06 1.05 1.05 1.08 1.05 1.06 1.05 1.03 1.04 1.07 1.08 1.06 1.07 1.09 1.07 1.12 1.17 1.21 1.25 1.28 1.27 1.28 1.26 1.23 1.19 1.15 1.16 1.16 1.13 1.08 1.05 1.10 1.09 1.10 1.11 1.22 1.34 1.43 1.48 1.51
0.22 0.21 0.25 0.27 0.32 0.30 0.27 0.23 0.22 0.23 0.23 0.20 0.19 0.16 0.12 0.10 0.10 0.09 0.15 0.17 0.18 0.16 0.21 0.25 0.27 0.26 0.23 0.23 0.29 0.40 0.48 0.59 0.71 0.73 0.73 0.75 0.78 0.80 0.85 0.88 0.91 0.94 0.98 1.01 1.05 1.08 1.09 1.05 1.01 1.01 1.03 1.06 1.05 1.04 1.04 1.06 1.10 1.13 1.12 1.10 1.06 1.06 1.13 1.18 1.23 1.23 1.26 1.27 1.25 1.24 1.21 1.18 1.19 1.20 1.17 1.12 1.08 1.11 1.09 1.10 1.12 1.19 1.25 1.35 1.36 1.39
0.20 0.24 0.24 0.23 0.27 0.30 0.29 0.22 0.19 0.18 0.20 0.19 0.17 0.15 0.12 0.09 0.08 0.06 0.08 0.13 0.16 0.18 0.22 0.23 0.27 0.22 0.25 0.27 0.29 0.31 0.40 0.48 0.57 0.67 0.72 0.74 0.73 0.76 0.82 0.87 0.90 0.94 0.96 0.98 1.02 1.06 1.08 1.09 1.06 1.03 1.01 1.02 1.04 1.07 1.09 1.12 1.14 1.15 1.16 1.17 1.14 1.10 1.15 1.18 1.22 1.24 1.25 1.26 1.26 1.27 1.25 1.22 1.21 1.18 1.18 1.16 1.11 1.12 1.12 1.13 1.14 1.19 1.23 1.25 1.25 1.29
0.16 0.16 0.19 0.22 0.19 0.27 0.27 0.25 0.23 0.19 0.18 0.18 0.19 0.17 0.13 0.11 0.08 0.06 0.07 0.08 0.10 0.14 0.18 0.24 0.22 0.20 0.20 0.21 0.30 0.31 0.37 0.43 0.48 0.55 0.65 0.70 0.72 0.76 0.81 0.85 0.90 0.92 0.95 0.98 1.01 1.04 1.07 1.10 1.11 1.08 1.05 1.03 1.04 1.07 1.13 1.18 1.20 1.22 1.19 1.17 1.16 1.17 1.22 1.23 1.22 1.25 1.25 1.26 1.28 1.29 1.30 1.28 1.26 1.21 1.19 1.18 1.17 1.15 1.14 1.16 1.19 1.25 1.30 1.28 1.28 1.28
0.18 0.16 0.19 0.22 0.21 0.23 0.23 0.26 0.28 0.25 0.22 0.20 0.20 0.20 0.16 0.13 0.14 0.08 0.09 0.09 0.10 0.13 0.15 0.19 0.20 0.25 0.22 0.30 0.31 0.33 0.35 0.39 0.45 0.48 0.54 0.60 0.67 0.74 0.81 0.85 0.87 0.90 0.93 0.97 1.01 1.05 1.09 1.13 1.16 1.16 1.14 1.10 1.07 1.08 1.15 1.20 1.24 1.24 1.23 1.22 1.20 1.19 1.22 1.28 1.28 1.27 1.27 1.28 1.30 1.31 1.29 1.29 1.29 1.27 1.23 1.20 1.21 1.20 1.20 1.20 1.23 1.26 1.30 1.31 1.32 1.34
0.21 0.17 0.21 0.23 0.24 0.22 0.22 0.26 0.26 0.27 0.17 0.19 0.20 0.16 0.15 0.18 0.16 0.12 0.11 0.13 0.15 0.14 0.12 0.18 0.20 0.25 0.30 0.30 0.32 0.33 0.33 0.37 0.44 0.47 0.50 0.53 0.60 0.69 0.77 0.81 0.82 0.84 0.90 0.95 0.99 1.03 1.07 1.13 1.18 1.20 1.19 1.17 1.14 1.11 1.12 1.18 1.24 1.25 1.28 1.30 1.29 1.27 1.29 1.31 1.32 1.31 1.31 1.32 1.33 1.33 1.32 1.31 1.30 1.28 1.23 1.18 1.16 1.17 1.20 1.24 1.28 1.30 1.33 1.37 1.37 1.34
0.19 0.18 0.22 0.21 0.20 0.22 0.24 0.27 0.28 0.28 0.27 0.22 0.17 0.17 0.20 0.21 0.19 0.15 0.10 0.10 0.08 0.08 0.10 0.14 0.14 0.18 0.21 0.18 0.29 0.31 0.32 0.35 0.37 0.42 0.47 0.49 0.53 0.60 0.68 0.75 0.75 0.79 0.86 0.93 0.98 1.03 1.09 1.13 1.17 1.21 1.22 1.21 1.18 1.15 1.14 1.18 1.27 1.32 1.35 1.37 1.37 1.37 1.32 1.32 1.36 1.36 1.35 1.34 1.34 1.34 1.34 1.33 1.31 1.27 1.24 1.23 1.20 1.21 1.20 1.24 1.29 1.34 1.35 1.34 1.36 1.36
0.25 0.18 0.20 0.22 0.20 0.22 0.24 0.24 0.25 0.29 0.30 0.24 0.20 0.23 0.17 0.14 0.13 0.15 0.14 0.09 0.07 0.06 0.07 0.10 0.13 0.16 0.18 0.19 0.23 0.26 0.30 0.33 0.37 0.42 0.44 0.46 0.51 0.55 0.60 0.66 0.71 0.80 0.88 0.92 0.96 1.01 1.07 1.11 1.16 1.21 1.22 1.23 1.23 1.23 1.22 1.24 1.30 1.36 1.40 1.43 1.45 1.43 1.40 1.34 1.36 1.37 1.39 1.39 1.37 1.37 1.35 1.34 1.33 1.32 1.29 1.27 1.26 1.25 1.22 1.21 1.25 1.28 1.30 1.35 1.37 1.36
0.27 0.19 0.19 0.24 0.23 0.22 0.22 0.22 0.17 0.21 0.27 0.29 0.29 0.24 0.24 0.19 0.15 0.12 0.12 0.13 0.10 0.07 0.07 0.06 0.09 0.09 0.15 0.18 0.21 0.22 0.27 0.31 0.35 0.39 0.43 0.45 0.49 0.52 0.55 0.61 0.67 0.76 0.84 0.88 0.94 0.98 1.04 1.11 1.15 1.20 1.22 1.23 1.23 1.23 1.25 1.28 1.32 1.35 1.40 1.43 1.46 1.48 1.50 1.50 1.46 1.43 1.38 1.38 1.38 1.39 1.42 1.42 1.40 1.36 1.32 1.29 1.26 1.24 1.22 1.21 1.23 1.27 1.31 1.33 1.36 1.34
0.23 0.25 0.17 0.22 0.25 0.24 0.18 0.20 0.18 0.19 0.19 0.22 0.23 0.21 0.21 0.20 0.20 0.18 0.18 0.14 0.11 0.10 0.08 0.07 0.06 0.06 0.09 0.16 0.20 0.20 0.23 0.27 0.30 0.33 0.37 0.40 0.45 0.51 0.52 0.58 0.64 0.70 0.77 0.82 0.89 0.95 1.02 1.10 1.15 1.20 1.24 1.25 1.25 1.25 1.26 1.28 1.30 1.32 1.39 1.42 1.45 1.45 1.47 1.47 1.47 1.47 1.43 1.43 1.43 1.41 1.38 1.38 1.40 1.39 1.39 1.35 1.33 1.27 1.23 1.21 1.24 1.28 1.31 1.36 1.33 1.34
0.25 0.24 0.19 0.21 0.21 0.20 0.20 0.23 0.20 0.20 0.23 0.22 0.21 0.19 0.20 0.18 0.17 0.14 0.12 0.17 0.15 0.13 0.10 0.09 0.06 0.07 0.11 0.16 0.14 0.16 0.20 0.24 0.28 0.32 0.37 0.39 0.44 0.51 0.54 0.58 0.63 0.66 0.72 0.78 0.84 0.90 0.97 1.07 1.15 1.19 1.24 1.26 1.25 1.25 1.26 1.29 1.30 1.31 1.34 1.36 1.40 1.44 1.44 1.42 1.44 1.44 1.43 1.44 1.43 1.41 1.41 1.41 1.44 1.44 1.41 1.35 1.32 1.27 1.23 1.22 1.22 1.26 1.32 1.29 1.31 1.35
0.29 0.27 0.24 0.20 0.20 0.21 0.23 0.25 0.25 0.24 0.23 0.25 0.25 0.22 0.23 0.20 0.20 0.17 0.13 0.13 0.14 0.13 0.15 0.13 0.10 0.08 0.13 0.16 0.15 0.14 0.15 0.19 0.24 0.30 0.33 0.34 0.40 0.47 0.53 0.57 0.60 0.64 0.68 0.74 0.82 0.88 0.94 1.04 1.12 1.17 1.21 1.24 1.26 1.24 1.24 1.26 1.27 1.27 1.28 1.32 1.37 1.37 1.35 1.37 1.40 1.45 1.49 1.46 1.42 1.41 1.44 1.46 1.45 1.43 1.39 1.34 1.29 1.24 1.22 1.21 1.21 1.27 1.26 1.26 1.29 1.35
0.38 0.26 0.21 0.22 0.24 0.26 0.27 0.28 0.27 0.25 0.24 0.23 0.26 0.28 0.25 0.21 0.19 0.17 0.15 0.16 0.13 0.13 0.12 0.12 0.10 0.11 0.14 0.16 0.16 0.15 0.15 0.16 0.19 0.25 0.30 0.35 0.39 0.44 0.49 0.53 0.57 0.62 0.67 0.75 0.82 0.87 0.91 0.99 1.08 1.14 1.17 1.22 1.26 1.26 1.24 1.24 1.25 1.24 1.26 1.29 1.32 1.30 1.32 1.38 1.42 1.45 1.47 1.46 1.44 1.44 1.43 1.40 1.40 1.39 1.36 1.29 1.26 1.22 1.21 1.22 1.21 1.25 1.26 1.27 1.31 1.30
0.29 0.27 0.24 0.20 0.21 0.21 0.24 0.26 0.25 0.25 0.24 0.22 0.22 0.25 0.25 0.25 0.23 0.21 0.20 0.21 0.16 0.14 0.13 0.12 0.08 0.11 0.13 0.19 0.18 0.20 0.20 0.19 0.21 0.24 0.30 0.35 0.39 0.43 0.49 0.55 0.60 0.64 0.67 0.73 0.79 0.85 0.89 0.95 1.00 1.04 1.10 1.14 1.20 1.24 1.25 1.23 1.23 1.21 1.21 1.25 1.26 1.26 1.34 1.39 1.44 1.44 1.43 1.43 1.42 1.44 1.41 1.39 1.39 1.36 1.33 1.29 1.27 1.23 1.23 1.22 1.22 1.24 1.24 1.28 1.29 1.31
0.36 0.29 0.26 0.19 0.16 0.15 0.15 0.16 0.16 0.19 0.20 0.22 0.24 0.24 0.24 0.23 0.23 0.21 0.17 0.18 0.15 0.16 0.16 0.13 0.11 0.14 0.16 0.16 0.15 0.16 0.15 0.15 0.19 0.26 0.31 0.37 0.41 0.43 0.49 0.55 0.60 0.65 0.69 0.74 0.81 0.85 0.86 0.90 0.93 0.98 1.04 1.11 1.16 1.20 1.21 1.21 1.21 1.20 1.19 1.20 1.22 1.25 1.34 1.38 1.43 1.41 1.41 1.41 1.40 1.40 1.39 1.39 1.39 1.35 1.33 1.32 1.29 1.26 1.25 1.24 1.23 1.22 1.25 1.28 1.28 1.32
0.35 0.35 0.30 0.26 0.23 0.19 0.21 0.24 0.28 0.27 0.23 0.19 0.20 0.22 0.22 0.23 0.24 0.23 0.21 0.18 0.15 0.18 0.15 0.14 0.14 0.14 0.14 0.14 0.14 0.14 0.14 0.13 0.12 0.17 0.25 0.31 0.32 0.35 0.40 0.45 0.48 0.52 0.59 0.69 0.80 0.85 0.87 0.90 0.92 0.95 1.00 1.06 1.11 1.15 1.18 1.18 1.17 1.18 1.18 1.18 1.21 1.27 1.32 1.36 1.40 1.40 1.39 1.38 1.37 1.37 1.38 1.39 1.38 1.39 1.39 1.37 1.34 1.33 1.30 1.27 1.24 1.23 1.21 1.27 1.29 1.30
0.38 0.31 0.32 0.31 0.31 0.31 0.33 0.30 0.30 0.30 0.23 0.21 0.21 0.21 0.22 0.23 0.23 0.22 0.20 0.17 0.21 0.18 0.14 0.17 0.17 0.14 0.14 0.15 0.15 0.14 0.14 0.14 0.13 0.13 0.17 0.23 0.26 0.29 0.32 0.39 0.45 0.48 0.56 0.68 0.77 0.85 0.87 0.88 0.93 0.97 0.99 1.03 1.07 1.10 1.12 1.14 1.15 1.16 1.17 1.16 1.20 1.25 1.31 1.38 1.40 1.41 1.40 1.39 1.38 1.36 1.37 1.40 1.43 1.45 1.45 1.45 1.43 1.37 1.33 1.30 1.28 1.25 1.26 1.29 1.28 1.28
0.37 0.31 0.33 0.37 0.31 0.33 0.34 0.32 0.31 0.29 0.27 0.23 0.22 0.22 0.22 0.22 0.23 0.21 0.21 0.23 0.22 0.19 0.15 0.18 0.19 0.16 0.16 0.16 0.16 0.15 0.15 0.14 0.14 0.15 0.16 0.19 0.23 0.29 0.35 0.39 0.43 0.48 0.57 0.68 0.75 0.85 0.88 0.89 0.94 1.00 1.01 1.01 1.03 1.05 1.07 1.10 1.13 1.16 1.18 1.19 1.22 1.26 1.28 1.34 1.37 1.38 1.40 1.40 1.37 1.35 1.38 1.44 1.48 1.50 1.50 1.49 1.46 1.40 1.35 1.32 1.30 1.30 1.29 1.28 1.27 1.29
0.39 0.34 0.38 0.37 0.32 0.32 0.33 0.34 0.33 0.29 0.28 0.27 0.23 0.22 0.23 0.23 0.23 0.22 0.22 0.24 0.23 0.22 0.23 0.23 0.23 0.21 0.21 0.19 0.18 0.17 0.17 0.17 0.19 0.22 0.23 0.22 0.22 0.28 0.34 0.38 0.42 0.50 0.60 0.64 0.72 0.84 0.90 0.92 0.94 0.99 1.02 1.04 1.02 1.03 1.06 1.09 1.12 1.14 1.14 1.15 1.20 1.23 1.27 1.35 1.35 1.35 1.37 1.36 1.34 1.38 1.44 1.47 1.49 1.49 1.51 1.51 1.46 1.43 1.40 1.36 1.34 1.32 1.29 1.28 1.28 1.27
0.38 0.32 0.39 0.38 0.33 0.31 0.33 0.35 0.34 0.31 0.29 0.27 0.26 0.23 0.23 0.23 0.23 0.23 0.23 0.23 0.24 0.24 0.25 0.25 0.24 0.23 0.25 0.25 0.22 0.19 0.18 0.19 0.19 0.23 0.28 0.30 0.32 0.35 0.39 0.39 0.41 0.54 0.64 0.68 0.72 0.81 0.94 0.96 0.97 1.01 1.03 1.03 1.03 1.02 1.05 1.09 1.12 1.16 1.17 1.19 1.20 1.21 1.28 1.34 1.33 1.35 1.35 1.32 1.35 1.42 1.47 1.48 1.48 1.50 1.48 1.47 1.49 1.48 1.43 1.38 1.36 1.33 1.30 1.29 1.29 1.26
0.41 0.35 0.40 0.38 0.31 0.28 0.33 0.33 0.34 0.32 0.30 0.28 0.27 0.26 0.22 0.21 0.21 0.21 0.22 0.23 0.23 0.21 0.23 0.24 0.23 0.22 0.26 0.28 0.26 0.23 0.19 0.18 0.19 0.23 0.24 0.28 0.30 0.33 0.37 0.45 0.46 0.51 0.61 0.68 0.69 0.76 0.84 0.90 0.95 1.00 1.03 1.04 1.04 1.05 1.07 1.10 1.15 1.18 1.17 1.20 1.21 1.23 1.29 1.33 1.34 1.33 1.34 1.35 1.40 1.45 1.45 1.46 1.48 1.49 1.47 1.49 1.48 1.48 1.46 1.43 1.38 1.33 1.30 1.28 1.26 1.26
0.39 0.37 0.35 0.35 0.30 0.28 0.34 0.37 0.35 0.35 0.31 0.27 0.25 0.24 0.24 0.23 0.22 0.23 0.25 0.26 0.25 0.24 0.22 0.21 0.21 0.26 0.27 0.28 0.26 0.23 0.20 0.18 0.19 0.23 0.25 0.27 0.32 0.34 0.34 0.41 0.50 0.56 0.63 0.64 0.65 0.71 0.77 0.82 0.89 0.96 1.03 1.06 1.07 1.08 1.10 1.13 1.15 1.15 1.17 1.19 1.21 1.28 1.31 1.31 1.31 1.32 1.33 1.38 1.42 1.43 1.45 1.48 1.49 1.49 1.50 1.50 1.50 1.53 1.52 1.44 1.36 1.30 1.27 1.23 1.24 1.27
0.40 0.39 0.36 0.39 0.30 0.28 0.34 0.38 0.38 0.32 0.24 0.21 0.24 0.27 0.27 0.24 0.23 0.22 0.22 0.24 0.27 0.27 0.24 0.25 0.26 0.29 0.29 0.29 0.26 0.24 0.21 0.18 0.19 0.33 0.39 0.35 0.32 0.37 0.42 0.53 0.59 0.63 0.66 0.66 0.65 0.69 0.76 0.83 0.88 0.94 1.01 1.07 1.08 1.10 1.13 1.17 1.16 1.17 1.20 1.21 1.26 1.29 1.30 1.30 1.32 1.34 1.34 1.38 1.41 1.43 1.45 1.47 1.47 1.47 1.49 1.53 1.55 1.56 1.51 1.44 1.33 1.27 1.26 1.26 1.28 1.26
0.38 0.39 0.37 0.40 0.34 0.29 0.35 0.38 0.33 0.25 0.23 0.24 0.29 0.31 0.30 0.29 0.28 0.27 0.25 0.25 0.27 0.28 0.29 0.29 0.29 0.29 0.30 0.30 0.29 0.27 0.29 0.38 0.40 0.42 0.43 0.48 0.46 0.42 0.45 0.53 0.65 0.66 0.68 0.71 0.73 0.74 0.77 0.79 0.84 0.91 0.97 1.04 1.10 1.14 1.18 1.21 1.23 1.27 1.28 1.26 1.22 1.22 1.22 1.25 1.26 1.28 1.31 1.34 1.38 1.43 1.45 1.46 1.46 1.45 1.49 1.55 1.57 1.56 1.51 1.44 1.37 1.32 1.28 1.25 1.22 1.21
0.38 0.37 0.38 0.38 0.37 0.36 0.35 0.35 0.26 0.25 0.30 0.31 0.32 0.32 0.33 0.32 0.31 0.29 0.28 0.33 0.38 0.36 0.30 0.28 0.30 0.32 0.32 0.31 0.31 0.35 0.41 0.45 0.43 0.46 0.51 0.52 0.54 0.53 0.54 0.53 0.64 0.74 0.74 0.74 0.75 0.76 0.76 0.78 0.80 0.84 0.90 0.99 1.06 1.11 1.15 1.17 1.25 1.26 1.21 1.18 1.13 1.13 1.14 1.15 1.17 1.20 1.28 1.32 1.36 1.39 1.43 1.44 1.45 1.48 1.53 1.57 1.59 1.56 1.50 1.46 1.40 1.32 1.31 1.27 1.25 1.27
0.41 0.40 0.39 0.34 0.39 0.31 0.32 0.34 0.33 0.38 0.33 0.33 0.30 0.32 0.33 0.30 0.30 0.27 0.24 0.32 0.44 0.44 0.37 0.30 0.30 0.35 0.35 0.34 0.35 0.45 0.47 0.44 0.37 0.43 0.57 0.59 0.58 0.61 0.61 0.60 0.66 0.75 0.82 0.84 0.84 0.84 0.86 0.88 0.87 0.90 0.92 0.94 0.99 1.05 1.09 1.13 1.20 1.21 1.15 1.12 1.09 1.08 1.10 1.12 1.13 1.15 1.22 1.28 1.35 1.39 1.44 1.46 1.47 1.50 1.55 1.59 1.57 1.53 1.51 1.47 1.43 1.40 1.39 1.29 1.24 1.21
0.43 0.38 0.39 0.37 0.37 0.38 0.33 0.33 0.35 0.31 0.25 0.29 0.41 0.53 0.57 0.54 0.37 0.34 0.31 0.35 0.46 0.50 0.48 0.38 0.34 0.36 0.37 0.39 0.43 0.45 0.46 0.35 0.32 0.38 0.54 0.63 0.66 0.64 0.67 0.68 0.72 0.74 0.72 0.73 0.77 0.83 0.86 0.87 0.89 0.91 0.93 0.96 1.02 1.07 1.13 1.15 1.16 1.15 1.11 1.12 1.15 1.14 1.14 1.15 1.13 1.16 1.19 1.22 1.29 1.37 1.46 1.52 1.54 1.54 1.58 1.60 1.56 1.52 1.53 1.56 1.54 1.48 1.45 1.32 1.25 1.21
0.43 0.44 0.45 0.44 0.39 0.39 0.36 0.34 0.33 0.30 0.32 0.47 0.52 0.56 0.60 0.53 0.53 0.40 0.31 0.28 0.45 0.53 0.55 0.46 0.41 0.41 0.39 0.41 0.44 0.45 0.36 0.29 0.32 0.42 0.56 0.65 0.68 0.71 0.67 0.70 0.76 0.77 0.75 0.73 0.70 0.72 0.74 0.77 0.86 0.94 0.99 0.99 0.97 1.11 1.23 1.27 1.24 1.17 1.11 1.12 1.15 1.15 1.11 1.08 1.08 1.14 1.18 1.20 1.26 1.33 1.41 1.50 1.57 1.59 1.60 1.59 1.57 1.59 1.59 1.60 1.56 1.55 1.55 1.45 1.36 1.27
0.44 0.49 0.53 0.49 0.43 0.41 0.37 0.35 0.34 0.36 0.37 0.54 0.66 0.66 0.65 0.69 0.58 0.43 0.24 0.25 0.45 0.62 0.60 0.55 0.48 0.46 0.45 0.46 0.46 0.43 0.35 0.30 0.36 0.48 0.67 0.73 0.73 0.74 0.70 0.69 0.72 0.75 0.77 0.82 0.82 0.82 0.80 0.77 0.78 0.85 0.90 0.90 0.94 1.08 1.15 1.19 1.17 1.13 1.12 1.13 1.17 1.18 1.16 1.10 1.05 1.11 1.20 1.26 1.36 1.42 1.46 1.50 1.51 1.54 1.58 1.58 1.60 1.65 1.66 1.70 1.70 1.66 1.58 1.50 1.43 1.35
0.40 0.46 0.51 0.44 0.44 0.42 0.38 0.37 0.39 0.41 0.59 0.74 0.74 0.75 0.72 0.69 0.55 0.30 0.22 0.30 0.64 0.71 0.68 0.64 0.59 0.58 0.56 0.51 0.50 0.43 0.55 0.58 0.66 0.74 0.79 0.80 0.75 0.72 0.77 0.80 0.80 0.82 0.81 0.80 0.81 0.85 0.82 0.82 0.79 0.76 0.87 0.97 1.05 1.12 1.13 1.15 1.14 1.14 1.18 1.19 1.20 1.16 1.16 1.18 1.16 1.13 1.23 1.33 1.39 1.42 1.43 1.45 1.47 1.46 1.50 1.57 1.63 1.70 1.72 1.75 1.73 1.71 1.65 1.56 1.51 1.43
0.42 0.47 0.52 0.50 0.46 0.43 0.41 0.37 0.40 0.50 0.71 0.88 0.86 0.83 0.84 0.55 0.33 0.29 0.45 0.73 0.76 0.73 0.76 0.74 0.67 0.69 0.67 0.63 0.63 0.64 0.71 0.78 0.80 0.81 0.80 0.77 0.74 0.75 0.76 0.77 0.80 0.82 0.87 0.90 0.91 0.84 0.79 0.78 0.80 0.86 0.88 0.92 0.99 1.07 1.10 1.09 1.04 1.03 1.07 1.11 1.11 1.13 1.21 1.28 1.30 1.30 1.31 1.35 1.41 1.44 1.41 1.39 1.41 1.44 1.46 1.55 1.64 1.67 1.69 1.76 1.80 1.77 1.71 1.68 1.59 1.47
0.47 0.43 0.43 0.44 0.52 0.51 0.51 0.42 0.41 0.37 0.66 0.94 0.92 0.78 0.82 0.50 0.55 0.71 0.76 0.86 0.92 0.85 0.77 0.78 0.78 0.79 0.76 0.75 0.81 0.80 0.81 0.81 0.81 0.80 0.79 0.80 0.78 0.74 0.74 0.74 0.71 0.74 0.76 0.80 0.81 0.87 0.85 0.79 0.76 0.79 0.83 0.92 0.96 0.99 0.99 0.98 0.96 1.02 1.10 1.11 1.15 1.23 1.29 1.33 1.33 1.32 1.33 1.37 1.41 1.40 1.36 1.38 1.41 1.46 1.52 1.54 1.59 1.59 1.59 1.68 1.76 1.79 1.80 1.75 1.67 1.58
0.61 0.48 0.46 0.49 0.58 0.43 0.42 0.39 0.45 0.71 0.86 1.02 0.94 0.69 0.83 0.84 0.95 1.04 0.98 0.80 0.94 0.93 0.84 0.82 0.86 0.89 0.87 0.82 0.84 0.85 0.86 0.84 0.85 0.88 0.86 0.85 0.85 0.85 0.83 0.81 0.79 0.77 0.79 0.82 0.84 0.86 0.87 0.83 0.84 0.86 0.92 0.96 0.99 1.00 1.02 0.97 0.92 0.95 0.98 0.98 1.10 1.24 1.36 1.39 1.38 1.37 1.36 1.40 1.45 1.43 1.39 1.37 1.37 1.44 1.51 1.55 1.57 1.58 1.57 1.61 1.66 1.73 1.79 1.80 1.75 1.67
0.62 0.57 0.60 0.45 0.62 0.52 0.47 0.55 0.75 0.94 1.04 1.07 1.04 1.02 0.97 1.02 1.12 1.06 1.04 0.97 0.89 0.93 1.01 0.88 0.89 0.93 0.92 0.88 0.87 0.85 0.82 0.85 0.84 0.88 0.85 0.87 0.89 0.90 0.88 0.86 0.88 0.87 0.88 0.86 0.86 0.89 0.90 0.86 0.86 0.88 0.90 0.97 1.01 1.06 1.06 1.07 0.99 0.96 0.91 1.03 1.17 1.17 1.19 1.22 1.27 1.29 1.26 1.22 1.25 1.30 1.35 1.42 1.43 1.42 1.44 1.47 1.51 1.49 1.52 1.55 1.62 1.63 1.70 1.77 1.83 1.81
0.74 0.79 0.81 0.67 0.61 0.74 0.74 0.81 0.89 0.97 0.98 1.05 1.10 1.11 1.08 1.12 1.18 1.16 1.06 0.98 0.96 1.01 1.04 0.97 0.99 0.98 0.98 0.96 0.87 0.89 0.89 0.89 0.86 0.87 0.90 0.91 0.90 0.93 0.95 0.94 0.92 0.94 0.93 0.94 0.95 0.98 0.98 0.99 0.97 0.96 0.95 1.02 1.06 1.09 1.12 1.10 1.07 0.99 1.05 1.14 1.18 1.22 1.24 1.25 1.25 1.24 1.26 1.33 1.38 1.36 1.36 1.35 1.39 1.44 1.49 1.54 1.57 1.54 1.53 1.53 1.57 1.59 1.65 1.72 1.77 1.83
0.72 0.78 0.75 0.60 0.69 0.58 0.53 0.82 0.80 0.84 0.96 1.04 1.05 1.06 1.12 1.17 1.18 1.17 1.11 1.06 1.03 1.04 1.01 1.03 0.99 0.97 0.97 0.94 0.87 0.87 0.89 0.92 0.88 0.89 0.92 0.93 0.94 0.96 0.97 0.95 0.96 0.97 0.96 0.95 1.01 1.05 1.05 1.07 1.05 1.06 1.09 1.06 1.15 1.14 1.14 1.13 1.14 1.13 1.14 1.16 1.23 1.28 1.32 1.33 1.34 1.32 1.34 1.33 1.34 1.39 1.45 1.46 1.45 1.46 1.50 1.54 1.60 1.63 1.61 1.64 1.65 1.65 1.69 1.73 1.75 1.74
0.58 0.81 0.69 0.69 0.66 0.57 0.59 0.77 0.81 0.90 0.99 1.04 1.04 0.97 1.00 1.11 1.14 1.15 1.14 1.13 1.09 1.06 1.02 1.00 1.00 0.95 0.96 0.90 0.90 0.86 0.87 0.91 0.87 0.86 0.86 0.88 0.91 0.93 0.96 0.97 0.99 1.00 1.04 1.06 1.08 1.10 1.10 1.09 1.06 1.06 1.08 1.10 1.18 1.24 1.26 1.25 1.22 1.23 1.22 1.23 1.26 1.29 1.31 1.32 1.36 1.38 1.40 1.42 1.45 1.46 1.47 1.46 1.47 1.51 1.53 1.56 1.56 1.57 1.66 1.71 1.73 1.73 1.69 1.75 1.80 1.73
0.74 0.79 0.61 0.69 0.63 0.68 0.78 0.87 0.86 0.90 0.98 1.02 0.99 0.98 1.02 1.10 1.13 1.16 1.16 1.13 1.10 1.05 1.03 1.06 1.05 1.02 1.00 0.96 0.99 0.93 0.88 0.91 0.93 0.91 0.88 0.89 0.90 0.92 0.93 0.96 1.00 1.02 1.03 1.04 1.06 1.07 1.05 1.05 1.05 1.06 1.08 1.11 1.18 1.20 1.20 1.22 1.28 1.31 1.30 1.31 1.33 1.33 1.29 1.29 1.31 1.33 1.33 1.36 1.40 1.41 1.47 1.50 1.51 1.49 1.46 1.48 1.55 1.64 1.65 1.61 1.68 1.67 1.74 1.89 1.92 2.00
0.74 0.66 0.76 0.70 0.57 0.57 0.62 0.73 0.84 0.67 0.72 0.92 0.95 1.00 1.08 1.15 1.19 1.16 1.15 1.14 1.09 1.05 1.05 1.04 1.06 1.11 1.11 1.11 1.08 1.04 0.95 0.97 0.99 0.99 0.94 0.95 0.96 0.97 0.99 0.99 1.01 1.02 1.05 1.09 1.11 1.10 1.08 1.07 1.07 1.07 1.09 1.14 1.19 1.20 1.19 1.19 1.21 1.23 1.26 1.29 1.32 1.33 1.28 1.28 1.29 1.28 1.29 1.33 1.36 1.40 1.42 1.44 1.44 1.44 1.49 1.50 1.44 1.45 1.52 1.73 1.74 1.71 1.75 1.79 1.84 1.73
0.65 0.71 0.71 0.63 0.58 0.57 0.75 0.82 0.86 0.84 0.89 0.97 1.01 1.10 1.15 1.23 1.24 1.21 1.15 1.10 1.12 1.11 1.10 1.06 1.05 1.08 1.10 1.14 1.19 1.13 1.06 1.02 1.02 1.03 0.98 0.96 0.97 1.01 1.05 1.05 1.03 1.03 1.04 1.09 1.07 1.07 1.06 1.08 1.09 1.09 1.09 1.12 1.16 1.17 1.19 1.21 1.23 1.23 1.25 1.27 1.27 1.26 1.25 1.27 1.26 1.27 1.32 1.37 1.39 1.39 1.46 1.54 1.50 1.48 1.52 1.41 1.43 1.41 1.47 1.53 1.70 1.83 1.83 1.78 1.71 1.67
Wind_Speed
18 19 21 22 22 22 23 22 22 21 20 20 18 18 18 16 17 16 14 13 11 12 15 17 17 16 17 17 16 15 15 13 12 12 12 13 14 14 13 13 14 15 17 18 19 20 21 22 23 23 22 23 23 23 23 23 23 22 21 21 20 19 19 18 18 17 16 15 15 14 13 13 13 12 12 12 12 12 11 11 10 9 9 9 8 8
17 20 21 21 21 22 23 22 21 21 22 21 20 19 19 17 18 17 15 14 11 11 14 16 17 18 18 18 17 16 16 14 13 13 13 14 14 14 14 15 15 15 16 17 19 20 22 23 23 24 23 23 24 23 24 23 23 23 22 21 21 20 20 19 19 18 17 16 15 14 14 13 13 13 12 12 12 12 12 11 11 10 9 9 8 8
17 20 21 20 21 22 22 22 22 22 22 22 21 20 20 18 17 18 17 16 13 12 13 14 17 19 19 19 18 19 17 15 15 15 14 15 15 15 16 15 15 15 15 17 20 21 22 23 24 24 24 24 24 24 24 24 23 23 23 22 21 21 20 20 19 19 18 17 16 15 14 14 13 13 13 12 12 12 12 12 11 11 10 10 9 8
17 17 19 19 20 21 22 23 22 22 22 22 21 20 20 20 17 17 17 15 14 13 12 13 15 17 18 19 20 21 20 17 16 16 15 15 15 16 17 16 16 16 16 18 20 21 22 23 24 25 25 25 25 25 25 24 24 23 23 23 22 22 21 20 20 20 19 18 17 16 15 14 14 14 13 13 13 13 13 12 12 12 11 10 9 8
18 16 16 18 19 21 23 23 23 22 22 22 23 22 21 21 19 18 17 14 14 14 12 10 12 15 17 20 21 21 20 18 17 16 16 16 16 16 17 17 17 18 18 19 20 22 23 23 24 25 25 26 26 25 25 25 24 24 23 23 23 22 21 21 21 20 19 19 17 16 16 15 15 14 14 14 14 13 13 13 12 12 12 11 10 9
20 17 15 17 19 21 22 23 23 23 22 23 24 24 23 22 21 19 18 16 15 16 14 11 12 14 17 22 22 21 20 19 17 17 17 16 17 17 17 18 18 18 19 19 20 21 22 23 25 25 26 26 26 26 26 25 25 24 24 23 23 22 21 21 21 21 20 20 19 18 17 16 16 15 14 14 14 14 13 13 12 12 12 11 10 10
18 18 16 17 18 20 21 22 23 22 22 23 23 22 23 23 23 21 19 18 17 17 16 13 13 14 16 22 23 22 22 22 19 18 18 17 17 17 18 18 19 19 19 19 20 21 22 23 24 25 26 27 26 26 26 26 26 25 24 24 23 22 22 21 21 22 21 21 20 20 19 18 17 16 16 15 14 14 14 13 12 12 12 12 11 10
17 19 19 19 18 19 20 21 22 22 22 22 20 20 22 24 25 23 21 21 20 19 19 16 14 14 15 20 23 23 24 23 21 20 19 18 18 19 19 19 20 20 20 20 20 21 22 22 23 24 26 27 27 27 27 26 26 26 26 25 24 24 23 22 22 22 22 21 21 21 20 19 18 18 17 16 15 14 14 14 14 13 12 12 11 11
16 18 20 20 20 19 19 19 20 21 22 21 19 20 22 23 25 23 21 22 21 20 22 21 17 16 16 17 21 23 25 25 24 23 20 19 19 19 19 19 20 21 21 22 22 22 22 23 24 25 25 26 27 27 27 27 27 27 26 26 25 25 24 23 23 23 23 22 22 21 21 20 19 18 18 17 16 15 15 15 15 14 13 12 12 11
15 18 19 19 20 20 18 18 19 21 21 19 19 21 21 22 23 23 23 23 22 22 25 24 20 18 17 17 19 21 24 25 25 23 20 20 20 20 20 20 20 20 21 23 23 23 23 23 24 25 25 26 26 27 27 27 27 27 27 26 26 26 25 24 24 24 23 23 22 22 21 21 20 19 18 18 17 16 16 16 15 15 14 13 12 12
17 17 18 17 18 19 18 18 19 20 20 18 18 20 20 21 22 23 23 23 22 24 26 26 23 20 19 18 20 21 23 24 23 22 21 21 21 21 21 20 20 20 21 22 24 24 24 24 25 25 25 25 25 26 26 27 27 27 27 27 27 27 26 25 25 25 24 23 23 23 22 22 21 20 19 19 19 18 17 17 16 15 15 14 13 13
21 19 18 17 17 18 18 19 19 19 20 19 17 18 19 20 20 23 23 23 24 24 25 26 24 23 22 20 20 21 23 24 24 23 23 22 22 23 22 21 21 21 21 22 24 24 24 24 24 25 25 25 25 25 26 26 27 27 27 27 27 27 27 26 26 26 25 24 24 23 23 23 22 21 21 20 20 19 19 18 17 16 15 15 14 14
23 23 20 18 18 18 17 18 19 19 20 20 19 18 18 17 18 22 23 23 24 24 24 24 24 25 26 23 21 21 22 24 24 23 23 23 23 24 23 23 22 22 22 22 24 25 25 25 24 25 25 26 25 26 26 26 27 27 27 27 27 27 27 26 26 26 26 25 25 24 24 23 23 22 22 21 21 20 20 19 18 17 16 15 15 15
21 22 22 22 20 19 19 19 20 20 20 22 21 20 19 17 17 20 20 20 22 23 23 24 24 25 25 23 23 23 22 23 24 24 24 24 24 25 25 24 23 22 22 23 24 25 26 26 26 26 26 26 26 27 27 27 27 27 27 28 28 27 27 27 26 27 26 26 26 25 24 24 23 23 23 22 22 21 20 20 19 18 17 17 16 16
21 20 23 24 21 20 22 21 20 19 20 22 22 21 22 20 18 18 17 19 21 21 21 22 23 24 24 23 23 23 23 24 25 26 26 25 25 25 25 24 23 23 23 23 24 25 27 28 27 27 27 27 28 28 28 27 27 27 27 28 29 28 28 28 27 27 27 27 26 26 25 25 24 24 23 23 22 22 21 20 20 19 18 17 17 17
24 22 21 22 21 21 23 22 20 19 20 22 21 22 24 23 20 18 18 19 19 19 20 22 24 24 24 23 23 23 23 23 24 25 25 24 24 23 23 24 24 24 24 23 24 25 27 28 28 28 28 28 29 28 28 28 28 28 28 28 29 29 29 29 28 28 28 28 27 27 27 26 25 24 24 24 23 23 22 22 21 20 19 18 18 17
23 23 20 19 21 23 24 22 22 22 21 19 22 25 23 21 21 21 20 19 18 19 21 22 23 24 23 23 23 23 23 23 23 23 23 24 23 22 23 24 25 25 25 24 24 25 27 28 29 29 29 29 29 29 29 29 29 29 28 28 29 29 29 29 29 29 29 28 28 28 28 27 26 25 25 24 24 24 23 22 22 21 20 20 19 18
22 23 21 21 23 24 24 23 24 25 23 21 22 23 20 19 22 22 19 18 20 21 21 21 24 24 22 22 22 22 23 24 23 23 23 23 22 22 23 24 25 26 25 24 24 24 26 28 29 29 30 30 29 29 30 30 30 29 29 28 28 29 29 30 30 29 29 29 29 28 28 28 27 27 26 25 25 25 24 23 23 22 21 21 20 19
25 24 23 24 24 23 22 24 26 27 26 24 22 21 20 20 22 22 19 19 19 20 19 19 22 23 24 23 21 22 23 23 23 23 23 23 22 22 23 24 25 25 25 24 24 24 25 28 29 29 30 30 30 30 30 30 30 29 29 29 28 28 29 29 29 29 29 29 29 29 29 28 28 27 26 26 25 25 25 24 24 23 22 22 21 20
27 26 25 24 24 23 23 26 29 28 27 25 22 23 23 22 22 23 21 19 18 18 18 18 19 22 25 24 22 22 23 23 22 22 23 23 23 23 23 23 24 24 24 24 24 23 25 27 29 30 30 31 30 30 30 30 29 29 29 28 28 28 28 28 29 29 29 29 29 29 29 28 28 28 27 26 26 25 26 25 25 24 23 23 22 22
29 29 28 25 24 25 26 28 30 29 28 27 26 26 25 23 22 22 23 21 19 17 16 17 18 20 22 23 23 24 24 24 23 23 23 24 25 25 24 23 23 24 24 25 24 24 24 27 28 29 30 31 30 30 29 29 29 29 28 28 28 28 28 28 28 29 29 29 29 29 29 28 28 28 27 27 26 26 26 26 25 25 24 24 24 23
31 30 30 28 27 29 29 28 28 29 30 30 29 28 27 25 22 21 22 22 21 20 18 17 19 20 19 19 21 23 24 24 24 24 23 23 25 26 25 25 24 24 25 25 25 24 24 26 28 29 30 30 29 29 28 29 29 29 28 28 28 27 27 28 28 28 29 28 29 29 29 29 28 28 28 27 27 26 26 26 26 26 25 25 25 24
31 31 32 32 32 31 29 28 28 29 30 31 32 30 28 27 25 24 22 21 20 21 19 17 18 20 19 18 18 20 22 24 25 25 25 24 26 26 26 27 26 26 26 26 26 24 24 25 27 28 29 29 29 29 28 29 29 29 29 28 28 27 28 28 28 28 28 28 29 29 29 29 28 28 28 27 27 27 27 26 26 26 26 26 25 25
30 32 33 33 31 30 30 29 28 29 30 32 33 32 31 30 29 27 24 21 22 22 19 17 18 18 17 17 17 17 17 19 21 25 26 25 26 27 27 27 26 26 26 27 27 26 25 25 26 27 28 29 29 29 29 29 29 29 29 29 28 28 28 28 27 27 28 28 28 28 28 29 28 28 28 27 27 27 27 27 27 27 27 26 26 26
30 31 31 30 29 29 29 29 30 31 31 31 32 33 34 34 31 28 25 23 24 24 22 20 19 17 16 15 15 15 15 15 18 22 26 26 25 26 26 26 25 25 26 27 28 27 26 26 26 27 28 28 29 30 29 29 30 30 30 30 29 29 28 28 27 27 28 28 28 28 28 28 27 27 27 26 26 26 26 27 27 27 27 27 26 26
31 31 31 31 31 31 30 30 31 32 31 30 31 33 35 36 34 31 27 26 26 24 24 24 21 18 18 17 17 17 17 17 18 20 24 26 26 25 25 25 24 24 25 27 29 28 27 27 27 27 28 28 29 30 30 30 31 31 30 30 30 29 28 28 27 27 28 28 27 28 28 27 27 26 26 26 26 26 26 26 27 27 27 27 27 26
31 31 33 33 33 33 32 31 30 29 31 33 33 33 34 35 36 34 30 30 28 24 26 27 23 20 20 19 19 19 19 19 19 20 23 25 27 27 26 26 26 26 26 27 30 30 28 27 27 27 28 29 29 30 30 30 31 31 31 31 30 29 29 28 28 28 28 28 28 28 27 27 27 26 25 25 25 26 26 26 27 27 27 28 28 27
30 32 33 34 35 34 33 33 32 31 33 36 35 34 34 33 35 37 36 34 29 26 28 27 24 24 23 21 20 20 20 19 19 19 21 23 26 27 27 27 28 28 27 28 29 31 29 28 27 27 27 28 29 29 30 31 32 32 31 31 31 30 29 29 28 28 28 28 28 28 28 27 27 26 26 25 25 26 26 26 27 27 28 28 28 28
31 32 31 32 35 36 35 34 34 34 35 35 36 36 35 34 35 38 39 35 31 31 30 26 26 27 26 24 23 21 20 19 18 18 19 21 24 26 26 27 27 27 27 27 29 30 30 29 28 28 28 28 29 30 30 30 31 31 31 31 31 31 31 30 30 30 29 29 29 28 28 28 27 27 26 26 26 26 26 27 27 27 28 28 28 28
30 32 30 31 35 37 36 35 35 36 35 35 36 37 36 36 37 37 37 35 35 35 32 27 28 29 26 25 24 23 21 18 17 18 19 20 23 25 25 26 26 26 27 28 29 30 30 29 29 28 28 29 30 30 30 30 30 31 31 31 31 31 31 31 31 31 30 30 29 29 29 28 28 27 27 27 27 26 26 27 27 28 28 29 29 29
30 31 30 30 33 36 36 35 35 36 37 36 35 36 36 37 38 38 37 35 35 36 32 29 29 29 26 24 24 24 22 18 18 19 19 19 21 22 23 24 25 25 26 28 29 30 30 29 29 29 29 29 31 31 30 30 30 30 30 30 31 31 32 32 31 31 31 31 30 30 30 30 29 29 29 28 28 27 27 27 28 28 29 29 29 29
31 31 31 30 31 34 34 31 32 35 37 37 37 37 38 38 38 37 36 34 35 35 33 31 31 28 25 23 23 24 23 21 21 20 19 18 19 21 22 23 25 25 25 27 29 29 30 29 29 30 30 30 31 32 32 31 30 30 29 30 31 31 32 32 32 32 32 32 31 31 31 31 31 30 30 30 29 29 28 28 29 29 29 30 30 30
32 31 31 29 31 34 33 30 30 31 32 37 41 41 40 39 37 35 34 34 35 35 34 34 33 28 23 20 21 23 24 25 23 21 19 19 19 21 22 22 23 24 24 26 27 28 30 29 29 30 31 30 31 32 33 32 31 30 30 30 30 31 32 33 33 33 33 33 32 32 32 32 31 32 31 31 31 30 29 29 29 30 30 30 30 30
33 32 31 30 32 34 33 29 29 29 32 37 40 39 38 39 37 36 34 34 34 34 32 32 31 28 24 21 21 23 23 24 23 21 20 19 18 19 20 19 20 21 23 24 25 26 28 28 28 28 29 30 31 32 32 32 31 31 31 31 31 31 31 32 32 32 33 33 33 33 33 33 33 33 33 32 32 32 31 31 31 30 30 30 31 31
35 33 32 31 32 33 32 29 28 30 35 37 35 35 37 37 36 36 34 32 33 33 32 30 30 29 25 23 22 21 20 21 21 20 19 18 17 18 18 18 19 20 21 22 23 24 26 27 27 28 29 30 32 32 32 32 32 32 32 31 31 31 32 32 32 32 32 33 34 34 34 34 34 34 33 33 33 33 33 33 32 31 31 31 31 32
37 35 33 32 32 32 31 30 30 31 34 34 31 31 33 33 33 35 34 32 32 32 32 31 30 28 25 23 22 21 20 20 20 19 19 18 18 18 18 18 18 19 20 21 22 24 25 26 27 28 28 29 31 32 33 33 33 33 33 33 32 32 32 32 32 33 33 33 33 34 35 35 35 35 35 34 34 35 35 34 33 32 32 32 32 33
39 36 34 33 33 32 32 32 31 31 32 32 30 29 29 30 33 34 33 33 33 31 31 32 30 27 25 24 22 21 20 19 19 20 21 19 18 19 19 18 18 18 18 19 20 21 22 24 25 26 26 27 28 31 33 33 33 33 33 32 32 32 32 32 33 33 33 33 34 34 35 35 36 36 36 36 36 36 36 35 34 33 33 33 33 33
41 37 35 34 33 32 32 31 29 30 31 31 30 30 29 29 31 32 31 32 32 31 30 31 30 28 27 25 23 22 20 18 20 23 23 20 20 20 19 19 19 18 18 18 18 18 19 21 23 24 24 25 26 29 30 31 32 33 33 33 33 32 32 32 33 33 34 34 35 34 34 35 36 36 37 38 38 37 37 36 35 34 34 34 34 34
41 37 34 34 34 32 31 30 28 28 30 30 29 30 30 29 30 31 32 33 34 32 30 29 29 29 29 27 25 22 20 19 22 24 23 21 20 20 19 20 20 19 19 19 19 19 19 20 21 23 24 24 25 26 27 28 30 32 33 34 34 34 33 33 33 33 34 34 34 34 34 34 35 36 37 39 39 39 38 37 37 36 35 35 35 35
40 36 33 35 37 35 32 31 29 28 28 27 27 30 32 31 30 31 33 34 34 33 30 29 28 27 28 28 25 22 21 21 22 23 22 20 20 19 19 19 20 20 20 20 19 19 20 20 20 22 24 24 25 25 27 28 30 31 33 33 33 34 34 34 34 33 34 34 34 34 34 34 35 36 37 38 39 39 39 39 38 37 37 36 36 35
39 37 33 33 35 35 33 30 29 29 28 26 26 29 30 30 31 33 34 34 32 31 29 27 26 25 24 24 23 22 22 21 21 21 20 19 19 19 19 19 20 20 20 20 20 20 20 19 19 20 22 23 24 26 28 30 31 33 34 34 34 35 36 36 35 35 35 35 36 36 36 35 35 35 36 36 37 38 39 40 40 39 39 38 37 37
38 37 34 32 32 32 31 29 27 27 26 24 24 27 28 30 32 33 33 31 30 29 28 25 24 22 21 20 20 21 21 20 20 19 19 18 18 18 18 19 20 20 20 20 20 19 20 20 19 19 20 21 23 25 27 29 30 32 33 35 36 37 37 37 36 36 36 36 37 38 38 37 37 37 36 36 36 36 37 39 41 41 40 39 39 39
37 37 34 33 31 30 29 28 26 27 26 22 22 24 26 28 30 30 30 29 29 28 27 25 24 23 21 20 20 20 20 20 19 19 19 18 18 17 17 18 19 20 20 20 20 20 21 21 20 20 20 20 22 23 24 27 28 30 31 33 35 36 36 37 37 37 37 37 38 39 39 40 40 39 38 38 38 37 37 38 39 41 42 42 41 40
36 37 35 34 32 30 30 28 26 26 26 23 23 24 25 26 27 27 28 29 28 27 26 25 24 23 23 22 21 20 20 20 19 19 19 19 18 18 17 17 18 19 20 20 21 21 21 22 22 22 22 22 22 23 24 26 27 29 30 32 33 34 35 36 37 37 38 39 39 40 40 40 41 40 40 40 40 40 40 39 39 40 41 43 43 42
35 35 35 34 31 29 30 30 27 25 25 23 23 23 23 23 23 24 26 27 26 26 26 25 25 25 24 23 22 21 20 20 20 19 18 18 18 18 18 18 18 19 19 20 21 21 22 22 23 23 23 23 23 24 25 26 27 29 30 31 32 33 35 37 38 39 40 41 41 42 42 42 42 42 42 42 42 43 43 43 42 41 41 42 43 44
34 32 32 33 31 27 28 29 28 26 24 22 22 21 20 20 20 22 25 25 25 25 25 25 26 25 24 23 22 21 21 21 21 20 20 19 19 19 19 19 19 19 20 20 20 21 22 22 23 23 23 24 24 25 25 26 27 28 29 30 31 33 34 36 38 40 41 42 43 44 44 44 44 44 44 44 45 45 46 45 45 44 42 42 42 44
35 32 31 32 31 27 27 29 30 28 24 22 22 22 20 20 22 24 25 26 25 25 24 24 25 24 24 23 22 21 21 21 21 21 21 21 20 20 20 20 21 21 21 21 21 22 22 23 23 24 24 25 26 26 27 27 28 28 29 30 31 32 33 34 36 38 40 41 43 44 44 45 46 46 46 47 47 48 47 47 46 46 44 44 44 44
34 33 31 32 31 28 27 28 29 28 24 22 23 23 21 21 23 25 26 25 25 25 23 22 23 23 22 22 21 20 20 20 20 20 20 20 21 21 21 22 22 22 22 23 23 23 23 24 24 25 26 27 27 28 28 29 29 30 31 31 32 32 33 33 34 35 37 39 40 41 43 45 46 46 47 48 49 49 49 49 48 48 47 46 45 46
33 32 31 31 31 28 26 26 27 26 23 21 22 22 21 20 21 23 25 24 23 23 23 21 21 21 21 20 20 20 19 19 20 20 20 20 21 21 22 23 23 24 24 24 24 24 24 24 25 25 26 27 28 29 29 30 31 31 32 33 34 34 34 34 35 35 36 38 39 41 42 44 45 46 47 48 48 48 49 50 51 50 50 49 48 47
31 30 30 31 31 29 27 27 27 25 22 22 22 21 21 20 19 20 22 22 21 21 22 21 20 19 19 19 20 19 19 19 20 20 20 20 21 21 22 23 23 24 24 24 24 24 24 24 25 25 26 27 28 28 29 29 30 31 32 33 34 35 35 35 36 36 37 38 39 41 43 45 46 48 49 49 49 48 47 48 49 51 51 50 49 48
31 28 28 30 31 30 28 28 28 26 23 22 22 21 19 18 17 17 18 20 20 20 20 20 19 18 18 17 17 18 18 19 20 20 19 20 21 21 22 22 22 22 22 22 23 23 22 23 23 24 24 25 26 27 27 28 28 29 30 31 32 33 34 34 35 36 37 38 39 41 42 45 48 51 52 52 51 51 49 45 44 46 49 49 48 47
Wind_Direction
215 221 224 222 222 220 220 221 223 227 227 227 229 232 234 236 238 233 228 233 232 229 227 223 223 221 216 217 218 216 214 220 223 221 219 215 214 212 207 207 207 206 205 201 198 198 197 197 197 198 198 197 197 198 198 198 199 199 199 199 199 199 200 201 202 202 203 204 205 207 209 211 212 212 213 213 212 213 215 215 216 219 221 224 228 231
218 224 227 221 220 220 221 221 222 225 227 229 230 234 237 234 236 234 227 231 232 230 234 230 228 226 221 218 218 214 214 220 220 218 218 214 214 213 209 208 209 208 205 200 199 199 198 198 198 199 200 199 199 199 199 199 200 200 201 201 201 201 202 203 204 204 206 207 208 209 210 211 213 214 215 216 215 215 215 216 217 220 223 226 228 231
225 229 227 220 219 220 222 222 221 225 226 228 228 232 238 233 234 237 228 227 229 234 239 232 229 231 227 221 218 215 218 223 220 217 216 211 210 212 211 209 209 209 205 202 202 201 201 200 199 200 201 201 201 201 201 201 201 201 202 203 203 204 205 206 207 207 208 209 210 212 212 212 214 216 217 218 219 218 216 217 219 221 225 227 229 232
228 233 226 218 218 220 224 225 223 227 228 227 227 229 234 231 230 234 228 225 227 233 240 236 234 235 230 226 223 220 221 224 222 220 219 213 209 210 212 210 207 208 207 205 204 203 202 202 201 201 202 202 203 203 203 203 203 203 203 204 205 206 207 208 209 210 211 212 212 214 215 215 216 218 219 220 222 221 219 219 221 223 226 228 231 233
230 233 223 217 219 219 224 226 224 227 230 229 227 226 230 230 227 228 229 232 236 238 241 239 240 237 227 222 223 223 224 225 223 222 223 221 216 214 214 213 209 208 208 206 206 205 204 204 203 203 203 203 204 205 205 205 205 206 206 206 207 209 210 211 212 212 213 214 214 215 215 217 219 221 222 222 223 222 220 220 221 224 226 230 233 234
232 231 222 219 222 221 223 227 224 225 230 233 230 226 227 230 229 229 231 238 244 245 243 235 237 242 229 220 222 223 223 224 224 223 224 223 221 220 219 217 213 211 211 209 207 206 205 206 206 205 205 205 206 207 208 207 208 208 209 209 210 211 212 213 214 214 214 215 216 216 216 218 220 222 223 222 222 221 219 220 221 224 227 230 232 234
231 224 221 221 223 223 225 228 225 222 229 234 229 224 226 229 231 231 232 237 239 241 243 238 237 242 232 222 223 222 221 223 222 222 224 223 221 222 220 218 216 213 213 212 210 207 206 206 207 207 207 207 209 210 210 210 210 210 211 211 212 214 215 216 215 214 215 216 217 218 219 220 221 223 223 223 222 222 221 221 222 225 228 231 233 234
225 219 221 222 222 225 227 228 224 219 226 232 226 221 225 229 231 231 230 235 238 240 246 244 238 242 237 227 224 222 223 224 222 221 223 222 223 223 222 220 218 216 214 213 212 210 207 207 208 208 209 209 211 211 211 211 212 212 212 212 213 214 216 216 216 215 215 216 217 219 220 222 223 224 224 223 223 223 222 222 223 226 231 233 234 235
222 219 221 221 223 228 227 227 222 218 226 230 224 223 225 227 230 230 229 235 237 240 244 243 237 243 248 237 225 222 223 221 220 221 221 222 224 224 222 221 220 218 216 214 213 212 210 209 209 210 210 211 211 211 211 212 213 213 213 213 214 215 216 216 216 216 216 217 218 220 221 222 225 226 225 224 224 224 224 224 225 228 233 236 236 236
227 223 221 221 226 229 227 226 222 220 226 228 224 226 228 228 229 228 229 234 235 236 239 240 235 238 247 242 226 221 221 219 220 222 223 223 225 223 221 221 220 219 218 217 216 214 213 211 211 211 211 212 212 212 213 214 214 215 215 215 215 216 217 217 216 217 218 218 219 220 221 222 224 226 226 226 226 226 226 227 228 230 233 236 237 236
233 231 225 226 230 229 226 225 223 221 223 224 223 227 231 232 231 230 230 232 235 237 238 237 234 234 243 243 230 224 222 220 222 224 225 226 226 226 225 224 223 221 220 220 219 217 216 214 213 212 211 212 213 213 213 214 215 215 216 216 217 217 218 218 218 218 219 219 220 221 222 222 224 225 226 226 227 227 228 229 230 231 234 236 236 235
234 234 232 233 230 225 224 226 225 222 220 220 220 222 229 234 233 235 233 229 233 239 239 237 234 234 239 241 236 232 227 224 224 225 226 227 228 228 228 227 225 223 223 221 220 219 218 217 216 215 214 214 213 213 213 214 215 216 217 217 218 219 219 220 220 219 220 220 221 222 223 224 224 225 226 227 228 228 228 229 231 232 233 234 235 233
233 234 234 235 230 223 222 225 225 224 221 219 218 217 222 229 230 232 231 229 235 242 241 235 233 237 241 241 237 234 231 227 227 228 227 227 228 229 229 227 226 225 225 223 221 220 219 218 218 216 215 215 215 215 215 215 216 217 218 218 218 219 220 221 222 222 221 222 222 223 224 225 226 226 227 228 229 229 229 230 230 230 231 231 232 230
234 238 234 233 233 226 222 222 222 223 222 220 219 215 216 220 226 230 232 235 241 245 243 235 233 239 244 243 237 233 232 230 229 229 229 228 228 229 228 226 227 227 226 225 223 221 220 219 219 218 217 217 217 217 217 217 217 218 219 219 219 220 220 221 221 222 223 223 224 224 225 227 228 228 229 229 230 230 230 230 230 230 230 230 231 229
230 238 232 228 230 224 223 224 221 219 221 223 221 218 220 220 222 229 231 233 239 244 242 234 233 237 239 241 237 232 232 231 229 229 229 229 229 229 228 226 227 228 227 227 226 223 222 220 220 220 219 219 219 219 219 219 219 219 220 220 221 221 221 221 221 222 223 225 226 226 226 227 228 229 230 230 231 231 231 230 230 230 230 230 231 231
230 238 235 231 229 222 223 225 220 218 223 225 221 221 224 222 223 233 235 232 236 243 242 234 235 240 241 245 241 233 232 231 230 230 229 231 231 230 229 227 227 229 228 228 228 226 224 221 221 221 221 221 220 220 220 220 219 220 221 222 222 222 222 222 223 223 224 225 226 226 226 227 228 230 231 231 232 232 232 231 230 231 230 231 232 232
232 238 236 232 232 226 223 223 219 218 221 223 221 223 226 224 225 234 241 240 239 243 243 237 240 245 246 248 243 235 233 231 230 231 230 231 231 228 228 227 228 229 228 228 228 228 225 222 222 222 222 222 221 220 221 221 220 221 221 222 223 224 224 224 224 224 224 225 226 227 227 227 228 229 231 231 231 232 232 232 232 231 231 231 232 232
233 240 237 229 232 231 225 224 225 222 218 221 223 224 226 228 229 230 236 240 239 244 248 241 240 242 241 244 242 233 233 233 231 231 230 231 230 229 229 228 228 228 227 228 228 229 227 223 222 222 222 223 221 221 221 221 222 222 223 224 224 224 224 225 225 225 225 225 226 227 227 228 228 229 231 231 232 232 233 233 232 231 230 230 231 231
233 241 241 231 230 231 225 225 230 228 223 225 226 222 221 224 226 225 228 235 236 242 250 246 243 241 239 241 239 232 232 233 232 232 232 233 231 231 232 230 228 227 227 228 228 230 228 224 223 222 222 222 222 222 222 222 222 223 224 225 224 225 225 226 226 227 227 226 227 227 228 228 229 230 231 232 232 233 233 233 232 230 229 229 230 231
233 236 240 234 229 229 226 225 227 227 226 227 226 225 225 226 225 225 227 232 233 240 247 247 247 244 240 239 236 233 233 232 232 232 232 233 232 231 231 229 227 226 226 226 227 229 227 224 223 222 221 221 222 223 223 222 222 222 223 224 224 225 226 226 227 227 227 227 228 228 228 229 229 230 231 232 233 234 234 233 231 229 229 229 230 230
232 233 236 235 231 229 228 227 226 225 224 224 224 224 225 226 228 229 231 232 231 235 241 245 249 249 244 240 236 235 235 234 233 232 234 236 232 230 229 227 226 226 225 225 225 226 226 223 222 221 221 222 222 223 222 221 221 221 222 222 223 224 225 226 227 227 228 228 228 228 229 230 230 230 232 233 233 234 234 233 231 229 229 229 229 229
230 232 233 233 231 230 231 230 228 226 225 225 225 224 223 223 224 226 233 235 232 234 237 241 251 253 248 242 238 237 236 236 234 231 234 237 232 230 231 230 229 227 225 224 224 225 225 223 221 221 221 222 222 222 220 219 220 220 221 222 223 224 225 226 226 227 227 227 228 229 230 230 231 231 232 232 234 234 233 232 230 230 230 229 229 229
231 232 232 232 232 233 234 233 230 228 227 227 228 226 224 223 222 223 231 233 232 237 239 242 252 255 249 241 238 238 237 236 234 230 231 234 231 230 231 231 231 229 227 225 224 225 225 222 221 220 221 221 221 220 219 219 220 220 221 222 223 224 224 225 226 226 226 227 228 229 230 231 231 231 231 232 233 233 232 231 230 230 229 229 229 229
233 232 232 234 235 236 237 236 234 231 227 228 228 225 223 224 224 226 230 231 233 235 236 241 250 253 250 243 240 242 240 237 235 231 229 232 231 230 231 231 231 230 228 226 225 225 225 223 221 221 221 221 221 220 220 220 221 220 221 222 222 223 224 224 225 225 225 226 227 229 230 230 230 230 231 231 232 232 231 231 230 229 229 229 229 229
232 232 232 232 232 233 234 233 232 228 225 227 228 225 225 224 224 227 230 232 236 234 229 235 244 245 248 249 245 244 240 237 237 232 229 230 230 231 233 233 232 231 229 227 225 225 225 223 222 222 222 222 221 220 220 221 221 221 221 222 222 223 224 224 224 224 224 225 226 227 229 229 229 230 230 231 231 231 230 230 230 229 229 229 229 229
232 232 231 230 230 230 230 229 229 226 225 228 228 226 226 224 222 224 227 229 235 235 229 232 240 244 249 253 250 245 241 240 242 239 235 233 231 233 235 234 233 232 230 227 225 224 224 224 224 223 222 222 221 221 221 221 221 221 222 222 222 222 223 223 224 224 223 224 225 227 228 228 229 229 230 230 231 230 230 230 230 230 229 229 229 230
234 234 232 232 235 236 235 235 231 226 225 228 228 227 226 225 223 223 227 230 231 233 234 234 237 243 249 250 249 248 246 246 245 241 237 236 234 235 236 234 234 233 231 228 225 223 223 224 225 223 222 222 221 221 220 221 221 221 222 222 221 221 222 223 223 223 224 224 225 227 228 228 229 229 229 230 231 231 231 231 231 231 230 229 229 230
236 236 235 236 239 240 241 240 233 227 227 228 227 226 226 225 224 224 228 230 228 230 237 237 235 240 246 247 246 247 248 248 245 239 235 236 237 238 237 236 236 235 232 229 226 223 222 224 225 223 222 221 220 220 220 221 222 222 223 223 222 221 222 223 223 223 224 225 226 227 228 229 229 229 230 231 232 232 232 232 232 232 231 230 230 231
235 235 235 240 243 243 243 241 234 230 229 227 225 226 226 224 224 225 229 229 226 230 237 237 234 238 242 243 243 244 243 241 242 241 239 239 240 240 239 237 236 235 231 227 225 222 221 224 224 223 222 221 219 219 220 221 222 223 224 224 223 222 222 223 223 224 225 226 227 228 229 229 230 231 231 232 232 233 233 233 233 232 231 231 231 232
234 235 236 242 245 244 243 241 235 231 231 229 226 225 225 225 225 227 229 229 228 233 237 236 235 238 241 241 241 240 238 237 241 245 244 241 239 239 239 238 235 232 229 226 224 221 221 224 224 223 223 222 220 220 220 221 222 223 224 224 224 223 223 223 223 224 225 227 229 230 229 229 230 232 232 233 233 233 233 233 233 232 232 232 232 233
235 236 239 243 245 243 242 240 235 231 230 231 229 226 225 226 227 227 228 228 230 234 236 234 236 240 244 244 242 240 238 238 242 244 242 240 237 235 237 238 234 231 228 226 224 221 220 222 224 224 224 223 222 221 221 222 223 223 224 224 224 224 223 224 224 225 227 230 231 231 231 231 231 232 233 234 234 234 234 234 233 233 233 233 233 233
236 238 239 242 244 242 238 238 238 235 231 231 230 227 224 225 227 229 228 227 228 230 232 233 235 239 243 244 245 244 239 236 239 243 244 245 242 236 235 236 232 229 228 226 224 222 220 221 223 224 224 224 224 223 223 224 225 225 225 225 225 226 225 225 226 227 229 232 233 232 232 233 233 233 235 235 235 236 235 234 234 234 234 234 234 233
234 237 239 240 243 241 237 239 243 238 230 229 229 227 225 225 227 229 230 229 229 228 230 233 235 238 239 240 242 243 238 235 237 241 246 250 249 243 240 236 231 227 227 227 226 224 223 223 224 224 224 226 226 225 225 225 226 226 226 226 227 227 226 226 227 229 231 232 233 234 234 235 234 235 236 236 236 236 236 235 236 235 235 235 234 234
231 234 237 238 239 239 240 243 243 234 227 228 229 226 225 225 225 227 229 231 230 231 234 236 236 238 238 236 237 239 237 233 232 235 241 246 247 245 243 238 232 228 229 229 229 227 225 225 226 226 226 227 227 227 227 227 228 229 229 228 228 227 227 228 229 230 233 233 233 234 235 235 236 236 237 237 237 237 237 237 237 237 236 236 235 234
230 232 234 235 235 238 241 241 236 229 228 230 231 227 225 225 225 226 229 232 232 232 234 235 235 236 235 233 235 236 231 228 228 233 239 242 242 240 240 239 237 235 234 233 232 230 228 228 228 228 229 229 228 228 229 230 231 230 229 229 229 229 229 230 231 233 235 235 234 235 236 236 237 237 238 238 237 237 237 238 238 238 237 236 235 234
228 230 231 232 233 234 234 231 229 231 232 231 231 228 226 224 222 223 228 233 232 231 230 230 233 234 231 230 231 227 224 225 229 236 241 241 240 238 238 240 241 239 237 236 236 235 233 233 233 233 233 232 231 230 231 232 232 231 229 228 229 231 232 234 236 238 238 237 236 236 236 237 238 238 238 238 237 237 238 239 239 239 238 237 237 236
225 227 230 231 230 228 228 229 232 235 234 228 225 227 226 224 222 220 225 231 232 230 229 229 229 229 227 226 224 222 225 230 235 240 243 242 240 238 238 239 240 238 236 236 237 236 234 234 234 234 235 234 232 232 231 232 232 230 228 228 230 232 234 236 238 240 240 240 239 238 238 238 238 238 238 238 238 238 239 239 239 239 238 237 237 237
222 224 226 227 227 224 225 229 231 231 229 224 225 230 230 229 226 220 221 229 232 230 230 228 226 224 223 223 222 223 229 234 236 240 243 241 240 239 239 239 238 236 237 238 239 238 239 238 235 234 234 235 235 233 232 231 230 229 228 230 232 235 236 238 240 240 240 241 241 240 240 240 240 239 238 238 239 239 239 239 239 239 239 238 238 237
219 221 222 225 226 224 223 225 225 225 224 225 229 232 232 232 229 221 220 227 230 230 229 226 224 222 221 221 223 226 229 232 234 237 240 240 239 239 238 239 238 237 238 240 241 242 244 245 242 236 235 236 237 234 230 229 228 228 231 233 236 237 238 240 242 242 241 241 242 241 241 241 241 240 240 240 240 239 239 239 239 239 239 239 238 238
215 217 219 222 224 223 222 225 225 224 225 227 229 230 231 231 224 217 219 225 227 228 227 225 224 224 223 222 225 230 232 231 232 234 235 235 236 236 237 237 238 239 240 240 243 244 245 247 245 240 238 238 238 235 232 230 230 232 235 237 238 239 241 242 244 244 243 243 243 243 242 242 241 241 241 241 241 240 239 238 238 238 238 239 239 239
212 214 217 220 222 221 221 223 224 224 225 228 230 231 230 224 215 215 222 225 224 223 223 222 223 224 223 222 225 230 231 228 227 229 230 230 231 233 236 237 237 239 240 241 244 246 245 245 246 245 244 243 240 237 236 235 236 238 239 240 241 242 243 244 245 246 246 245 245 244 243 242 242 242 242 242 241 240 239 239 238 238 239 239 239 238
209 211 214 216 217 217 217 219 223 222 220 225 231 230 223 215 213 219 224 222 219 219 218 217 218 216 214 215 218 220 222 223 224 227 229 230 230 231 234 236 237 239 241 242 245 247 247 247 248 249 250 248 244 241 239 239 241 243 243 243 244 245 246 246 247 247 247 247 246 245 244 243 243 242 242 242 241 240 240 240 239 238 239 239 238 238
208 208 210 210 209 211 213 215 218 217 218 225 229 221 214 213 217 221 222 217 214 214 212 212 214 211 206 206 209 212 216 219 222 224 227 230 231 231 233 235 236 239 241 243 245 247 248 248 250 252 254 253 251 248 246 244 244 245 245 245 246 247 247 248 248 249 248 248 247 245 244 245 245 244 242 241 241 241 241 241 240 239 238 238 238 238
209 208 208 207 207 207 209 210 211 213 218 224 220 213 214 218 219 220 220 216 213 211 208 207 210 209 204 202 204 207 210 213 216 219 223 227 230 232 234 236 238 240 242 244 247 249 249 249 251 254 256 256 255 254 254 252 250 249 249 249 250 250 249 249 250 250 249 249 247 245 245 246 246 244 242 242 241 241 242 242 241 240 239 238 238 237
207 207 208 208 207 206 206 207 208 211 217 219 214 213 219 220 215 215 216 213 210 210 207 204 205 207 204 202 204 206 208 211 214 217 221 225 229 232 235 238 241 242 243 245 248 250 252 252 253 255 256 257 257 257 257 257 257 256 255 256 256 255 254 254 253 251 250 249 248 247 247 247 247 245 244 243 242 241 241 241 242 241 240 239 238 237
206 206 207 206 205 205 205 205 205 209 215 217 213 212 215 214 211 210 211 209 208 208 207 204 204 207 207 206 206 207 211 213 215 218 223 226 230 234 237 241 245 246 247 249 250 253 255 256 256 257 257 259 260 259 258 259 259 259 259 260 260 259 259 258 256 254 253 251 249 248 248 248 248 247 246 245 244 243 242 240 240 241 241 240 239 238
205 206 206 204 203 203 204 204 204 207 213 214 211 210 213 216 215 210 207 206 206 205 205 206 206 206 208 208 207 208 212 215 217 220 225 229 233 237 240 244 248 250 251 253 255 257 258 258 259 259 259 260 262 262 261 261 261 261 261 262 262 261 261 260 258 256 255 253 252 251 250 249 248 247 246 245 245 244 243 241 240 240 241 240 240 239
203 205 205 203 202 201 202 202 202 204 209 209 205 207 214 222 220 213 206 204 204 203 204 206 208 209 210 211 212 213 217 222 224 226 231 236 240 243 246 249 252 254 255 257 259 260 260 260 261 260 260 262 263 263 263 263 263 263 263 264 264 263 262 262 261 259 258 257 256 254 253 251 249 248 247 246 245 245 243 241 240 240 241 241 241 240
203 205 204 202 200 199 199 200 199 201 205 205 203 205 212 220 220 212 204 201 202 204 204 206 210 214 215 218 221 222 224 229 233 234 238 242 246 249 251 253 256 257 258 259 260 261 261 262 263 262 262 263 264 265 265 265 265 265 265 265 264 264 263 263 263 263 262 261 259 257 256 254 252 250 249 248 246 245 244 242 240 239 240 242 242 242
201 202 201 200 199 198 199 200 200 200 202 201 200 203 210 216 218 211 203 200 202 205 207 208 211 215 219 222 226 227 228 232 235 237 241 244 248 251 253 254 256 257 258 259 260 261 263 264 264 265 265 266 268 268 269 269 268 268 268 267 265 264 264 263 263 264 264 263 262 261 259 257 255 253 251 249 246 245 244 244 242 239 239 241 242 242
200 201 202 200 198 199 200 201 198 197 197 197 196 197 200 206 210 208 202 199 200 204 207 209 211 215 218 222 226 229 231 235 239 241 243 247 250 251 252 253 255 256 258 260 261 262 264 266 266 267 268 268 269 270 270 270 270 270 271 270 267 266 265 265 265 266 265 265 265 264 263 262 259 256 252 247 244 243 241 240 240 239 238 238 239 239